Weather History for KUNV - September, 2014

Change the Weather History Date:

Tuesday, September 9, 2014

  Actual Average (WUND) Record (WUND)
Temperature  
Mean Temperature 63 °F -  
Max Temperature 66 °F - - (-1)
Min Temperature 60 °F - - (-1)
Degree Days  
Heating Degree Days 2    
Growing Degree Days 13 (Base 50)    
Moisture  
Dew Point 57 °F    
Average Humidity 83    
Maximum Humidity 88    
Minimum Humidity 75    
Precipitation  
Precipitation 0.00 in - - ()
Sea Level Pressure  
Sea Level Pressure 30.21 in    
Wind  
Wind Speed 3 mph (SE)    
Max Wind Speed 9 mph    
Max Gust Speed -    
Visibility 10 miles    
Events      
Averages and records for this station are not official NWS values.
T = Trace of Precipitation, MM = Missing Value Source: NWS Daily Summary

Daily Weather History Graph

Daily Weather History Graph

Search for Another Location

Airport or City:

Trip Planner

Search our weather history database for the weather conditions in past years. The results will help you decide how hot, cold, wet, or windy it might be!

Date:

Astronomy

Sep. 09, 2014 Rise Set
Actual Time 6:46 AM EDT 7:30 PM EDT
Civil Twilight 6:18 AM EDT 7:58 PM EDT
Nautical Twilight 5:45 AM EDT 8:31 PM EDT
Astronomical Twilight 5:11 AM EDT 9:04 PM EDT
Moon 7:48 PM EDT (9/9) 7:20 AM EDT (9/9)
Length of Visible Light 13h 39m
Length of Day
12h 44m
Waxing Gibbous, 99% of the Moon is Illuminated
Sep 9
Waxing Gibbous
Sep 15
Last Quarter
Sep 24
New
Oct 1
First Quarter
Oct 8
Full

Hourly Weather History & Observations

Time (EDT) Temp. Dew Point Humidity Pressure Visibility Wind Dir Wind Speed Gust Speed Precip Events Conditions
12:15 AM 61.7 °F 53.6 °F 75% 30.26 in 10.0 mi ESE 4.6 mph - N/A   Scattered Clouds
12:35 AM 61.9 °F 54.0 °F 75% 30.26 in 10.0 mi Calm Calm - N/A   Mostly Cloudy
12:55 AM 61.3 °F 54.1 °F 77% 30.26 in 10.0 mi SE 4.6 mph - N/A   Overcast
1:15 AM 61.3 °F 54.3 °F 78% 30.25 in 10.0 mi SE 3.5 mph - N/A   Mostly Cloudy
1:35 AM 61.2 °F 54.3 °F 78% 30.26 in 10.0 mi SE 4.6 mph - N/A   Scattered Clouds
1:55 AM 61.2 °F 54.5 °F 79% 30.25 in 10.0 mi ESE 3.5 mph - N/A   Mostly Cloudy
2:15 AM 60.4 °F 54.5 °F 81% 30.25 in 10.0 mi ESE 3.5 mph - N/A   Overcast
2:35 AM 61.0 °F 54.9 °F 80% 30.25 in 10.0 mi Calm Calm - N/A   Overcast
2:55 AM 60.8 °F 54.9 °F 81% 30.25 in 10.0 mi Calm Calm - N/A   Overcast
3:15 AM 61.2 °F 55.4 °F 81% 30.25 in 10.0 mi ESE 3.5 mph - N/A   Overcast
3:35 AM 61.0 °F 55.4 °F 82% 30.24 in 10.0 mi Calm Calm - N/A   Overcast
3:55 AM 60.8 °F 55.6 °F 83% 30.24 in 10.0 mi SE 3.5 mph - N/A   Overcast
4:15 AM 60.8 °F 55.9 °F 84% 30.24 in 10.0 mi East 3.5 mph - N/A   Overcast
4:35 AM 60.6 °F 55.9 °F 85% 30.24 in 10.0 mi East 3.5 mph - N/A   Overcast
4:55 AM 60.8 °F 56.3 °F 85% 30.23 in 10.0 mi East 4.6 mph - N/A   Overcast
5:15 AM 60.4 °F 56.3 °F 86% 30.23 in 10.0 mi Calm Calm - N/A   Overcast
5:35 AM 60.8 °F 56.3 °F 85% 30.23 in 10.0 mi East 4.6 mph - N/A   Overcast
5:53 AM 60.8 °F 57.2 °F 88% 30.23 in 10.0 mi Calm Calm - N/A   Overcast
6:53 AM 60.8 °F 57.2 °F 88% 30.24 in 10.0 mi Calm Calm - N/A   Overcast
7:53 AM 60.8 °F 57.2 °F 88% 30.24 in 10.0 mi Variable 4.6 mph - N/A   Overcast
8:53 AM 60.8 °F 57.2 °F 88% 30.24 in 10.0 mi Calm Calm - N/A   Overcast
9:53 AM 60.8 °F 57.2 °F 88% 30.24 in 10.0 mi Variable 4.6 mph - N/A   Overcast
11:53 AM 62.6 °F 57.2 °F 82% 30.24 in 7.0 mi ESE 9.2 mph - N/A   Overcast
12:53 PM 62.6 °F 57.2 °F 82% 30.22 in 10.0 mi SE 6.9 mph - N/A   Overcast
1:53 PM 64.4 °F 59.0 °F 83% 30.21 in 10.0 mi SSE 6.9 mph - N/A   Overcast
4:53 PM 66.2 °F 60.8 °F 83% 30.16 in 10.0 mi SSE 6.9 mph - N/A   Overcast
5:53 PM 66.2 °F 60.8 °F 83% 30.15 in 10.0 mi SSE 3.5 mph - N/A   Overcast
6:53 PM 66.2 °F 60.8 °F 83% 30.15 in 10.0 mi Calm Calm - N/A   Overcast
7:53 PM 64.4 °F 60.8 °F 88% 30.15 in 10.0 mi Calm Calm - N/A   Overcast
8:53 PM 66.2 °F 60.8 °F 83% 30.16 in 10.0 mi Calm Calm - N/A   Overcast
9:21 PM 66.2 °F 60.8 °F 83% 30.16 in 10.0 mi Calm Calm - N/A   Overcast
9:55 PM 65.3 °F 60.1 °F 83% 30.16 in 10.0 mi ESE 4.6 mph - N/A   Overcast
10:15 PM 65.5 °F 59.9 °F 82% 30.15 in 10.0 mi Calm Calm - N/A   Overcast
10:35 PM 65.3 °F 59.9 °F 83% 30.15 in 10.0 mi Calm Calm - N/A   Overcast
10:55 PM 64.6 °F 59.7 °F 84% 30.14 in 10.0 mi Calm Calm - N/A   Scattered Clouds
11:15 PM 64.6 °F 59.4 °F 83% 30.13 in 10.0 mi Calm Calm - N/A   Scattered Clouds
11:35 PM 64.8 °F 59.5 °F 83% 30.14 in 10.0 mi SE 3.5 mph - N/A   Overcast